Temp
70 73 67 69 58 53 47 52 58 60 59 60 65 65 62 61 60 53 69 74 74 74 75 75 74 76 76 76 76 76 76 76 77 76 76 76 76 76 76 76 75 76 76 75 75 75 75 74 74
68 77 69 61 52 46 48 54 56 57 64 65 65 63 62 58 66 67 68 76 75 75 75 74 72 75 76 76 76 76 75 76 76 76 76 76 76 75 75 75 75 75 75 75 74 74 74 74 74
72 75 63 56 49 48 50 54 57 61 64 62 60 64 62 60 64 67 73 77 76 74 75 73 72 75 75 75 75 75 75 75 75 75 76 76 76 75 75 74 74 74 74 74 74 73 73 73 74
70 67 62 54 49 57 56 57 61 59 64 66 64 60 63 69 69 72 76 78 76 75 74 71 73 74 74 74 74 74 75 75 75 75 75 75 75 74 74 73 73 73 73 73 73 73 73 73 73
66 60 54 49 50 56 60 62 64 61 61 60 62 59 60 66 72 74 75 77 74 72 72 72 72 73 74 74 74 74 74 74 74 74 74 74 74 73 73 72 72 72 72 72 72 72 72 72 72
61 60 50 46 50 56 60 66 64 62 63 61 59 59 59 68 70 72 74 73 74 72 73 72 69 70 72 73 73 73 73 73 73 73 73 73 73 73 72 72 72 72 71 71 71 71 71 70 70
58 54 49 47 53 57 63 67 62 62 62 62 66 57 57 62 69 72 73 72 73 73 72 70 71 70 68 70 70 71 72 72 72 72 72 71 71 71 71 71 71 71 71 70 70 70 69 68 68
59 56 48 47 53 53 60 62 63 64 60 65 65 58 55 64 69 71 72 70 73 73 72 69 69 70 70 69 67 68 69 70 70 69 67 66 66 67 67 66 69 70 69 69 69 69 68 67 66
61 51 47 51 56 55 60 60 63 65 64 62 63 63 65 68 69 68 66 66 67 71 73 71 69 69 68 68 66 66 66 66 66 65 64 63 65 64 64 64 67 68 68 68 69 68 66 64 63
55 49 52 58 56 55 62 61 62 60 59 58 60 63 66 67 65 64 64 64 64 65 69 72 71 70 68 70 65 65 66 67 67 66 66 66 63 63 63 61 64 65 65 67 69 67 64 61 58
56 52 58 59 60 61 60 59 63 60 55 61 62 62 64 63 63 64 64 64 65 66 69 72 72 72 69 68 67 68 65 64 65 66 64 64 63 60 58 58 56 56 58 58 58 57 57 56 56
54 61 62 61 60 59 57 60 58 60 63 64 65 65 63 62 62 63 64 65 64 66 68 70 72 73 71 69 68 67 66 64 65 66 61 61 62 61 59 58 55 55 55 54 53 54 54 54 54
56 58 61 60 59 56 60 56 57 58 64 62 65 64 63 62 62 63 66 66 65 67 68 69 71 72 70 67 68 67 67 64 62 62 61 63 62 61 61 60 56 54 54 55 54 56 53 52 52
59 58 58 59 59 58 56 54 57 60 62 62 64 60 60 61 62 62 63 66 65 68 69 70 70 71 70 68 67 67 67 64 64 63 62 63 63 62 60 59 56 58 56 57 52 50 50 48 49
59 53 55 57 58 56 57 52 55 60 61 61 61 60 61 62 62 64 67 66 68 68 70 68 71 70 69 68 67 66 66 65 64 64 62 62 63 61 57 57 54 54 56 52 52 50 49 48 49
51 49 44 54 57 56 55 47 59 61 59 60 59 58 60 62 63 65 65 66 65 66 66 70 72 66 67 68 67 66 66 66 66 65 63 61 62 62 58 57 55 56 55 52 51 48 46 47 46
45 40 43 51 55 54 51 47 58 59 56 57 56 58 60 60 61 63 64 65 66 65 66 67 68 66 64 63 65 66 66 65 66 64 63 62 61 59 57 55 54 56 54 53 51 49 49 47 46
42 40 45 46 53 50 47 48 54 57 56 57 57 58 59 60 62 66 64 64 64 64 65 67 67 65 61 60 58 58 59 59 62 63 62 62 60 58 56 53 53 53 52 51 49 49 49 47 46
47 45 42 47 54 50 48 48 52 56 55 55 54 55 57 60 64 64 64 64 61 61 62 65 63 61 59 57 56 55 55 53 54 57 59 60 59 57 54 53 53 52 51 51 51 48 46 43 44
48 43 43 50 52 49 48 48 51 54 56 58 61 59 58 57 60 64 61 60 60 63 63 62 64 60 59 58 54 55 53 51 51 51 53 54 56 55 53 52 51 51 49 48 47 47 44 44 45
45 43 43 46 46 46 44 44 47 52 54 58 61 60 59 59 59 61 59 57 58 58 59 61 62 59 58 56 53 50 50 48 47 48 48 49 51 52 52 52 51 51 50 47 46 47 44 40 43
41 48 49 47 42 35 43 34 41 52 55 55 57 56 56 57 59 60 57 54 54 55 56 58 59 58 56 55 54 53 52 49 49 47 47 47 49 49 49 50 51 50 50 47 47 47 45 44 42
45 48 48 45 39 36 35 34 39 46 49 54 57 60 55 56 59 57 55 56 54 55 55 56 57 57 56 54 56 55 54 53 50 48 46 46 46 47 47 48 48 48 48 48 46 46 46 45 44
50 46 44 41 38 30 38 39 38 45 51 53 55 56 55 51 51 52 52 54 53 51 52 53 55 54 54 53 51 51 51 51 47 46 45 44 43 43 44 45 47 47 47 46 45 45 46 44 45
46 41 29 28 26 29 40 36 46 50 54 57 57 54 53 52 51 50 49 49 49 49 50 51 52 51 51 50 48 48 48 46 45 43 44 42 41 40 41 43 43 44 46 46 46 44 43 44 44
42 42 31 23 25 29 35 33 44 52 57 60 55 55 52 51 51 50 50 48 49 49 48 49 50 49 49 49 48 47 47 44 43 42 39 40 40 41 42 42 42 42 43 43 43 43 43 42 43
41 39 47 35 23 25 33 40 49 53 56 58 54 53 51 49 49 49 48 48 48 47 47 48 48 48 47 47 47 46 45 44 43 41 40 39 38 39 38 40 39 39 39 40 41 41 40 41 41
47 49 37 35 24 22 31 33 41 49 52 52 50 50 48 48 47 46 46 46 46 46 46 47 47 48 47 46 46 45 44 43 43 41 40 39 38 37 37 38 38 37 38 38 39 38 38 38 38
42 40 42 42 35 27 26 32 45 47 45 45 46 47 47 45 46 45 45 45 45 45 45 46 46 47 46 45 45 44 43 42 41 41 41 40 38 37 37 36 36 36 36 37 37 36 36 36 35
44 45 43 33 30 33 31 37 46 47 47 48 47 48 46 46 45 44 44 44 44 44 44 44 45 45 45 45 44 43 41 40 39 38 39 37 37 36 35 35 34 34 35 35 36 35 36 35 34
MSLP
1013.29 1012.98 1013.38 1013.61 1015.06 1015.69 1015.53 1015.11 1014.50 1014.75 1014.87 1014.89 1014.86 1015.28 1016.43 1016.87 1017.35 1018.09 1017.77 1018.13 1018.70 1019.52 1019.99 1020.41 1020.75 1021.06 1021.30 1021.52 1021.72 1021.90 1021.98 1022.07 1022.21 1022.33 1022.45 1022.49 1022.51 1022.50 1022.45 1022.60 1022.60 1022.87 1023.03 1023.16 1023.11 1023.14 1023.00 1022.91 1022.85
1013.38 1013.10 1013.51 1014.42 1015.54 1016.06 1015.94 1014.94 1015.22 1015.05 1015.01 1014.90 1015.02 1015.46 1016.22 1017.33 1017.30 1017.68 1017.93 1018.17 1018.72 1019.43 1019.99 1020.47 1020.79 1021.07 1021.30 1021.60 1021.93 1022.08 1022.26 1022.36 1022.55 1022.66 1022.75 1022.70 1022.74 1022.81 1022.86 1022.96 1023.18 1023.39 1023.50 1023.53 1023.50 1023.62 1023.53 1023.37 1023.39
1013.46 1013.43 1014.53 1015.07 1015.95 1015.66 1015.48 1015.40 1015.41 1015.29 1015.08 1015.13 1015.43 1015.55 1016.30 1017.39 1017.46 1017.53 1017.56 1017.95 1018.77 1019.49 1020.06 1020.56 1020.86 1021.17 1021.46 1021.71 1022.02 1022.31 1022.53 1022.73 1022.87 1022.99 1023.02 1023.03 1023.25 1023.34 1023.32 1023.55 1023.74 1023.84 1023.89 1023.98 1024.02 1024.00 1023.99 1023.96 1023.71
1013.74 1013.98 1014.84 1015.26 1015.65 1015.03 1014.97 1015.36 1015.17 1015.30 1015.23 1015.22 1015.54 1016.39 1016.70 1016.98 1017.27 1017.32 1017.50 1017.97 1018.66 1019.47 1020.11 1020.66 1020.91 1021.24 1021.59 1021.87 1022.20 1022.53 1022.78 1022.96 1023.12 1023.29 1023.42 1023.51 1023.64 1023.71 1023.81 1023.98 1024.22 1024.40 1024.45 1024.48 1024.49 1024.48 1024.56 1024.60 1024.44
1014.15 1014.92 1015.42 1015.51 1015.21 1014.61 1014.53 1014.60 1014.62 1015.34 1015.37 1015.45 1015.60 1016.51 1017.20 1017.36 1017.01 1017.27 1017.63 1018.04 1018.80 1019.56 1020.04 1020.55 1020.96 1021.30 1021.62 1021.95 1022.31 1022.70 1022.95 1023.14 1023.32 1023.53 1023.70 1023.85 1023.99 1024.14 1024.27 1024.48 1024.65 1024.76 1024.82 1024.95 1025.01 1025.04 1025.07 1025.01 1024.98
1014.78 1015.22 1015.90 1015.74 1015.15 1014.30 1013.90 1014.00 1014.49 1014.96 1015.28 1015.44 1015.74 1016.54 1017.53 1017.51 1017.44 1017.58 1017.78 1018.36 1018.71 1019.50 1020.06 1020.55 1020.98 1021.35 1021.69 1022.01 1022.36 1022.74 1023.07 1023.33 1023.54 1023.77 1023.94 1024.15 1024.35 1024.53 1024.70 1024.93 1025.08 1025.16 1025.25 1025.42 1025.53 1025.52 1025.60 1025.65 1025.53
1014.83 1015.77 1015.88 1015.56 1015.02 1014.17 1013.83 1013.51 1014.11 1014.71 1014.98 1015.16 1015.29 1016.66 1017.85 1017.93 1017.63 1017.57 1017.86 1018.32 1018.79 1019.38 1019.95 1020.63 1021.04 1021.41 1021.75 1022.12 1022.46 1022.79 1023.11 1023.39 1023.65 1023.95 1024.23 1024.48 1024.70 1024.90 1025.08 1025.29 1025.48 1025.61 1025.73 1025.88 1025.94 1026.06 1026.20 1026.26 1026.33
1014.82 1015.64 1015.65 1015.33 1014.91 1014.33 1013.78 1013.66 1013.81 1014.39 1014.94 1014.78 1014.93 1016.53 1017.84 1017.73 1017.68 1017.72 1017.98 1018.65 1018.84 1019.23 1019.79 1020.53 1021.10 1021.53 1021.89 1022.29 1022.59 1022.91 1023.24 1023.53 1023.81 1024.14 1024.50 1024.81 1025.04 1025.27 1025.47 1025.65 1025.83 1025.99 1026.16 1026.30 1026.43 1026.53 1026.74 1026.84 1026.92
1014.62 1015.55 1015.80 1015.09 1014.39 1014.14 1013.76 1013.92 1014.02 1014.31 1014.80 1015.15 1015.58 1016.14 1016.31 1017.01 1017.55 1018.03 1018.38 1019.00 1019.06 1019.18 1019.54 1020.16 1020.74 1021.45 1021.89 1022.28 1022.71 1023.01 1023.30 1023.66 1024.03 1024.41 1024.74 1024.99 1025.33 1025.57 1025.77 1025.96 1026.13 1026.31 1026.50 1026.61 1026.76 1026.96 1027.20 1027.42 1027.61
1014.95 1015.64 1015.38 1014.91 1014.58 1014.45 1013.96 1014.13 1014.39 1014.63 1015.18 1015.66 1016.20 1016.40 1016.70 1017.21 1017.74 1018.09 1018.32 1018.88 1018.99 1019.17 1019.21 1019.68 1020.23 1020.90 1021.68 1022.13 1022.68 1023.02 1023.36 1023.67 1024.00 1024.44 1024.75 1025.11 1025.45 1025.87 1026.19 1026.37 1026.48 1026.63 1026.74 1026.82 1026.95 1027.27 1027.54 1027.82 1028.19
1014.84 1015.23 1014.97 1015.11 1014.64 1014.71 1014.52 1014.46 1014.59 1014.87 1015.44 1015.52 1015.88 1016.58 1016.99 1017.47 1017.93 1018.14 1018.23 1018.29 1018.38 1018.70 1018.92 1019.19 1019.75 1020.28 1021.06 1021.80 1022.40 1022.85 1023.35 1023.70 1023.98 1024.23 1024.65 1025.03 1025.56 1026.16 1026.60 1026.88 1027.06 1027.05 1027.12 1027.33 1027.54 1027.76 1027.98 1028.28 1028.57
1014.70 1014.66 1014.68 1014.80 1014.88 1014.78 1014.96 1014.94 1014.87 1015.02 1014.99 1014.94 1015.26 1015.92 1016.63 1017.29 1017.62 1017.81 1017.89 1017.98 1018.16 1018.43 1018.55 1018.98 1019.07 1019.69 1020.47 1021.18 1021.82 1022.39 1023.00 1023.48 1023.82 1023.95 1024.56 1025.12 1025.55 1026.03 1026.60 1027.00 1027.23 1027.33 1027.54 1027.79 1028.07 1028.30 1028.58 1028.87 1029.14
1014.66 1014.81 1014.74 1014.86 1014.98 1015.11 1015.24 1015.35 1015.36 1015.12 1014.73 1014.98 1015.32 1015.86 1016.55 1016.95 1017.14 1017.31 1017.27 1017.44 1017.70 1018.01 1018.16 1018.45 1018.80 1019.14 1019.78 1020.62 1021.33 1021.88 1022.54 1023.18 1023.61 1024.01 1024.38 1024.70 1025.10 1025.62 1026.06 1026.61 1027.02 1027.34 1027.62 1027.99 1028.38 1028.79 1029.19 1029.58 1029.94
1014.65 1014.98 1015.04 1015.12 1015.30 1015.38 1015.66 1015.78 1015.76 1014.68 1014.33 1014.95 1015.56 1015.84 1016.25 1016.62 1016.64 1016.93 1017.16 1017.14 1017.21 1017.38 1017.55 1017.94 1018.41 1018.68 1019.32 1020.00 1020.81 1021.38 1022.02 1022.67 1023.18 1023.65 1024.02 1024.36 1024.70 1025.28 1025.89 1026.20 1026.80 1027.28 1027.65 1028.07 1028.75 1029.35 1029.94 1030.28 1030.50
1014.81 1015.31 1015.39 1015.31 1015.45 1015.88 1015.97 1016.19 1015.67 1014.31 1014.48 1015.02 1015.60 1015.88 1016.06 1016.02 1016.12 1016.14 1016.10 1016.41 1016.43 1016.55 1016.89 1017.39 1017.80 1018.16 1018.79 1019.44 1020.10 1020.82 1021.44 1022.12 1022.63 1023.09 1023.68 1024.12 1024.45 1024.87 1025.68 1026.39 1026.86 1027.18 1027.72 1028.43 1028.98 1029.70 1030.32 1030.91 1031.21
1015.47 1015.81 1016.02 1015.26 1015.45 1016.07 1016.37 1016.05 1014.99 1014.48 1014.86 1015.05 1015.39 1015.71 1015.72 1015.74 1015.45 1015.39 1015.36 1015.61 1015.79 1016.10 1016.45 1016.76 1017.23 1017.79 1018.35 1018.73 1019.52 1020.20 1020.84 1021.41 1021.98 1022.53 1023.17 1023.80 1024.20 1024.58 1025.36 1025.91 1026.64 1027.21 1027.55 1028.38 1029.09 1029.72 1030.65 1031.27 1031.73
1016.27 1016.31 1016.22 1015.69 1015.67 1016.12 1016.75 1016.36 1015.17 1014.73 1014.87 1015.30 1015.29 1015.38 1015.32 1015.17 1014.97 1014.61 1014.56 1014.68 1014.98 1015.31 1015.83 1016.33 1016.71 1017.28 1017.91 1018.54 1019.09 1019.62 1020.19 1020.76 1021.36 1021.99 1022.61 1023.22 1023.87 1024.47 1025.06 1025.80 1026.54 1026.94 1027.69 1028.16 1028.79 1029.70 1030.08 1031.19 1032.09
1016.61 1016.41 1016.10 1016.04 1016.07 1016.32 1016.89 1016.43 1015.75 1015.05 1015.15 1015.26 1015.07 1014.76 1014.63 1014.43 1014.02 1013.68 1013.84 1013.96 1014.27 1014.62 1015.09 1015.73 1016.35 1016.98 1017.70 1018.44 1019.31 1019.94 1020.20 1020.71 1020.85 1021.33 1021.99 1022.70 1023.39 1024.15 1024.94 1025.71 1026.34 1027.01 1028.04 1028.04 1028.77 1029.49 1030.10 1030.87 1031.36
1016.09 1016.25 1016.27 1015.99 1015.83 1016.42 1016.71 1016.39 1015.85 1015.10 1015.13 1014.77 1014.84 1014.28 1013.96 1013.65 1012.95 1013.05 1013.20 1013.32 1013.84 1014.40 1014.92 1015.27 1016.06 1016.73 1017.50 1018.60 1019.38 1020.19 1020.42 1021.00 1021.27 1021.34 1021.61 1022.14 1023.00 1023.76 1024.53 1025.55 1026.22 1026.86 1027.41 1027.97 1028.32 1029.58 1030.25 1031.43 1031.96
1016.12 1016.21 1016.31 1016.10 1016.09 1016.66 1016.72 1016.29 1015.57 1015.06 1014.26 1013.83 1013.58 1013.37 1012.96 1012.86 1012.79 1012.65 1012.85 1013.13 1013.41 1013.73 1014.24 1014.95 1015.55 1016.50 1017.27 1018.01 1019.04 1019.93 1020.58 1021.36 1021.64 1021.83 1021.90 1021.97 1022.61 1023.36 1024.17 1024.72 1025.60 1026.28 1026.88 1028.76 1028.05 1028.97 1030.15 1031.14 1031.24
1016.17 1016.27 1016.44 1016.63 1016.83 1016.92 1016.96 1015.99 1015.14 1013.92 1013.53 1012.72 1012.42 1012.17 1012.09 1012.14 1012.34 1012.29 1012.53 1012.74 1013.10 1013.48 1013.92 1014.50 1015.14 1016.11 1016.98 1017.77 1018.78 1020.16 1021.08 1021.69 1022.08 1022.26 1022.33 1022.29 1022.54 1023.11 1023.64 1024.18 1024.92 1025.72 1026.36 1027.24 1027.61 1027.74 1028.54 1029.28 1030.33
1016.37 1016.25 1016.60 1017.12 1017.70 1018.02 1017.58 1016.22 1015.27 1014.06 1012.98 1012.48 1011.86 1011.50 1011.42 1011.80 1011.53 1011.81 1012.15 1012.77 1013.16 1013.54 1014.11 1014.52 1015.10 1015.84 1016.68 1017.36 1018.32 1019.35 1020.19 1021.11 1021.38 1021.78 1022.22 1022.44 1022.57 1023.06 1023.53 1023.87 1024.45 1024.98 1025.75 1026.33 1026.85 1027.69 1027.84 1028.31 1029.20
1016.53 1016.54 1017.07 1017.69 1018.32 1018.57 1018.23 1017.94 1014.39 1013.70 1012.89 1012.02 1011.11 1010.74 1011.05 1011.36 1011.49 1011.75 1012.21 1012.49 1013.11 1013.56 1014.00 1014.45 1015.08 1015.80 1016.43 1017.16 1017.86 1018.73 1019.78 1020.30 1021.00 1021.63 1022.14 1022.43 1022.72 1022.95 1023.42 1023.73 1024.18 1024.74 1025.00 1025.67 1026.26 1027.13 1027.32 1027.62 1027.99
1016.62 1017.33 1018.16 1018.80 1019.36 1019.21 1018.08 1017.60 1014.13 1013.03 1011.72 1011.00 1010.58 1010.55 1011.05 1011.77 1011.96 1012.42 1012.69 1013.09 1013.70 1014.03 1014.40 1014.82 1015.29 1015.87 1016.43 1017.13 1017.95 1018.50 1019.40 1020.10 1020.86 1021.43 1021.96 1022.39 1022.78 1023.13 1023.28 1023.49 1023.77 1024.24 1024.58 1025.02 1025.52 1026.17 1026.77 1027.02 1027.53
1016.80 1018.06 1019.66 1020.51 1020.55 1018.75 1017.51 1017.09 1013.25 1011.84 1010.77 1010.39 1010.31 1010.81 1011.48 1012.26 1012.82 1013.22 1013.59 1013.86 1014.26 1014.63 1014.67 1015.05 1015.48 1016.02 1016.58 1017.19 1017.83 1018.39 1018.97 1019.48 1020.19 1020.86 1021.43 1022.13 1022.62 1023.01 1023.27 1023.42 1023.64 1023.89 1024.25 1024.53 1025.10 1025.75 1026.35 1026.61 1027.03
1016.49 1016.96 1018.14 1019.24 1020.15 1019.04 1017.81 1015.51 1012.53 1011.04 1010.29 1009.97 1010.13 1010.64 1011.57 1012.43 1012.84 1013.38 1013.86 1014.21 1014.64 1015.07 1015.19 1015.28 1015.74 1016.29 1016.79 1017.28 1017.86 1018.33 1018.79 1019.18 1019.77 1020.38 1021.01 1021.62 1021.97 1022.16 1022.63 1023.14 1023.57 1023.83 1024.16 1024.66 1024.99 1025.45 1025.96 1026.41 1026.69
1016.46 1016.51 1016.60 1018.11 1019.46 1019.14 1017.17 1014.61 1012.39 1011.01 1010.49 1010.21 1010.54 1011.22 1011.82 1012.60 1013.14 1013.60 1014.16 1014.54 1015.01 1015.44 1015.60 1015.66 1015.98 1016.44 1016.93 1017.34 1017.73 1018.19 1018.72 1019.02 1019.47 1020.00 1020.57 1021.08 1021.62 1022.00 1022.55 1022.91 1023.39 1023.74 1023.91 1024.22 1024.57 1025.03 1025.42 1025.79 1026.29
1014.54 1015.33 1016.66 1017.46 1018.66 1018.66 1016.63 1015.20 1012.90 1011.95 1011.48 1011.35 1011.26 1011.79 1012.49 1012.91 1013.53 1014.08 1014.45 1014.70 1015.12 1015.49 1015.85 1016.03 1016.35 1016.56 1016.88 1017.18 1017.42 1018.02 1018.43 1018.74 1019.04 1019.43 1019.98 1020.54 1021.03 1021.55 1022.08 1022.56 1022.94 1023.35 1023.66 1024.13 1024.40 1024.73 1025.26 1025.68 1026.12
1014.95 1015.05 1015.63 1016.24 1016.91 1016.93 1016.51 1014.86 1012.89 1012.60 1012.84 1012.70 1012.60 1012.44 1012.57 1013.34 1013.90 1014.28 1014.73 1014.96 1015.47 1015.74 1015.83 1015.96 1016.16 1016.21 1016.55 1016.86 1017.25 1017.62 1018.18 1018.67 1019.03 1019.35 1019.75 1020.22 1020.63 1021.10 1021.63 1022.06 1022.55 1022.94 1023.31 1023.66 1024.05 1024.37 1024.89 1025.28 1025.78
1014.54 1014.46 1014.88 1015.68 1016.43 1016.50 1016.06 1013.99 1013.36 1012.98 1012.83 1012.77 1013.01 1012.96 1013.08 1013.49 1014.17 1014.67 1014.93 1015.16 1015.58 1016.01 1016.10 1016.05 1016.10 1016.20 1016.46 1016.78 1017.22 1017.64 1018.03 1018.43 1018.83 1019.24 1019.69 1020.19 1020.69 1021.01 1021.38 1021.82 1022.30 1022.73 1023.13 1023.46 1023.79 1024.22 1024.50 1024.95 1025.49
Wind_Speed
7 8 1 5 6 6 2 1 4 5 4 2 3 8 8 2 2 4 1 14 18 13 12 12 14 15 14 14 12 11 12 13 14 14 14 15 15 16 18 20 19 18 19 19 19 19 19 20 21
5 5 5 2 5 3 4 3 6 3 5 6 5 3 4 2 3 5 6 17 18 15 12 11 14 15 14 16 13 12 12 13 14 14 14 15 16 16 18 20 18 18 18 19 19 18 18 19 19
4 1 4 4 3 3 3 4 7 3 4 3 3 3 4 3 2 7 5 18 17 14 12 12 14 16 15 16 14 13 13 13 14 14 14 15 16 16 18 19 18 17 18 18 18 18 19 21 19
3 6 5 5 1 6 6 7 8 4 5 5 5 6 4 2 11 7 8 20 17 15 14 13 15 16 16 16 16 14 13 14 14 15 14 15 16 16 17 18 18 17 17 18 18 18 19 19 19
4 3 4 2 3 3 6 8 9 6 6 3 2 5 4 3 9 9 8 14 15 13 13 14 15 16 17 16 16 14 14 14 15 15 15 15 16 16 16 17 17 17 17 17 17 17 18 21 19
4 4 4 2 2 1 4 8 9 6 5 3 3 6 4 6 9 7 7 13 14 15 13 12 13 13 15 16 16 15 14 14 15 15 16 16 16 16 16 16 17 17 18 18 17 17 20 21 22
5 4 4 1 3 3 5 6 5 7 8 5 4 5 2 3 7 8 8 12 13 14 13 10 10 11 13 13 14 14 15 15 15 14 14 14 14 15 15 15 17 17 18 18 18 19 21 22 24
4 4 1 2 2 1 3 3 1 5 3 1 3 5 5 7 9 8 7 10 13 13 13 12 9 9 9 9 13 13 13 13 13 14 14 13 13 13 13 12 16 17 18 18 19 20 22 23 23
3 5 1 3 4 3 3 4 3 3 5 3 3 5 4 11 9 7 5 6 6 8 14 12 13 9 8 7 8 11 13 12 13 12 13 12 7 7 8 11 15 17 17 18 20 22 22 23 22
5 4 2 2 2 1 4 4 5 3 3 2 4 4 7 10 8 9 7 9 8 8 12 13 13 13 10 8 8 6 7 7 8 8 9 6 7 7 7 9 13 15 15 16 17 14 17 12 6
3 5 3 1 3 3 1 2 4 6 3 7 9 11 10 7 8 10 8 8 11 10 9 14 13 13 14 9 7 5 4 4 6 11 5 6 8 6 5 4 3 4 6 4 6 6 6 8 6
2 4 3 1 3 2 2 5 4 6 8 3 7 15 10 10 11 12 11 10 10 12 12 12 15 14 12 9 9 8 7 5 6 8 7 7 6 8 6 5 4 4 3 6 5 5 7 9 9
4 3 2 4 4 1 1 2 4 6 8 5 6 13 13 11 10 8 10 8 8 13 13 14 13 13 13 13 9 9 8 7 5 6 7 8 8 8 8 7 5 4 4 5 6 6 7 9 9
4 2 1 4 4 2 3 2 2 7 8 7 7 11 11 11 13 8 8 11 10 13 14 14 14 13 13 12 12 9 9 8 8 7 7 8 7 8 6 7 6 7 5 6 5 6 6 6 8
4 2 3 5 5 3 3 5 10 10 4 4 8 9 9 13 11 14 15 12 13 9 14 14 15 12 15 14 13 10 10 9 9 8 9 8 9 9 7 5 3 6 6 9 8 8 8 7 7
3 3 0 4 9 4 5 9 9 9 8 10 9 8 9 12 12 14 12 11 10 9 12 14 13 10 13 14 11 9 10 10 9 8 9 10 9 10 8 7 6 6 9 8 8 8 8 7 7
3 3 5 5 4 5 5 6 5 5 1 6 7 9 9 10 11 11 11 13 12 11 12 13 12 13 11 8 9 10 12 10 8 8 8 12 10 9 8 7 6 9 7 8 9 7 10 9 8
6 3 3 5 6 4 5 10 11 10 6 10 10 10 10 10 13 13 13 11 10 10 11 14 12 11 9 8 6 4 5 3 6 8 8 11 9 11 9 7 9 7 5 8 8 10 8 9 11
3 2 1 3 5 5 8 9 10 10 7 11 10 11 11 12 10 9 12 11 9 9 11 14 12 9 10 6 5 3 4 2 1 3 9 13 11 11 11 8 10 9 9 8 11 10 12 8 11
4 2 4 5 3 3 6 12 10 9 10 13 16 12 14 7 6 9 10 10 11 14 13 12 14 13 9 8 4 3 3 2 2 1 3 7 11 12 10 12 12 11 10 7 13 14 8 7 8
4 5 4 6 0 3 5 10 8 8 6 10 15 12 10 11 11 10 8 11 10 10 12 13 14 13 9 9 8 5 4 3 2 1 1 3 8 10 11 12 11 12 11 12 13 16 13 10 8
4 4 5 4 1 4 3 11 6 8 12 6 11 10 11 11 9 8 7 7 9 7 7 9 12 13 10 12 9 8 6 5 4 4 3 4 6 8 8 11 12 13 9 13 13 11 9 8 13
6 2 4 4 3 1 2 4 10 4 8 12 12 15 8 9 9 9 8 7 5 8 8 7 9 11 12 12 11 10 8 4 4 3 7 5 4 7 8 9 11 11 10 11 14 14 13 9 11
9 6 8 6 3 5 8 7 5 6 7 7 6 6 5 5 7 8 6 7 5 3 5 6 8 8 11 11 9 11 10 7 5 5 6 5 4 4 7 8 9 10 10 12 12 13 12 11 9
6 8 2 3 1 9 6 6 10 6 6 5 5 6 7 7 6 6 7 6 5 6 7 6 7 6 7 9 8 8 9 8 9 7 7 8 5 3 7 8 9 8 9 10 11 11 10 11 11
9 9 9 10 6 6 3 10 8 10 8 6 4 6 6 7 7 6 6 6 6 6 6 7 7 5 7 8 8 7 7 4 5 6 5 5 6 6 8 8 6 6 7 7 9 8 9 9 9
7 10 8 4 1 4 6 8 8 7 9 8 4 8 8 7 7 8 7 6 5 5 6 6 6 5 6 7 6 6 6 7 7 8 6 5 5 5 7 9 8 7 7 9 10 8 10 9 8
8 8 3 1 4 4 6 6 9 4 7 10 7 7 5 5 6 5 5 5 4 4 3 4 5 7 7 7 7 6 6 6 6 7 8 8 7 7 8 9 9 9 9 9 10 7 7 9 6
4 4 4 5 6 7 4 8 5 5 3 4 6 7 1 3 3 4 4 3 4 3 6 6 7 8 7 8 7 7 7 7 6 6 7 8 7 8 9 9 9 9 10 9 9 8 9 10 8
3 10 8 6 3 5 4 9 1 7 5 5 5 5 5 4 2 3 4 4 4 5 5 6 6 6 5 5 6 6 6 6 7 7 6 6 7 7 7 8 8 8 9 9 11 10 10 11 11
Wind_Direction
323 306 222 37 48 65 237 90 126 96 51 94 84 91 126 76 63 173 191 124 130 137 138 135 131 128 123 110 104 101 100 98 96 94 92 92 88 82 91 87 84 81 81 80 79 79 78 70 62
332 319 42 80 88 65 286 132 76 101 133 107 72 50 74 105 99 134 95 135 133 135 136 137 135 134 132 123 120 115 106 104 101 99 98 96 92 84 87 90 85 86 85 83 81 80 75 64 60
305 201 79 97 98 125 159 117 142 112 88 132 89 69 88 113 97 145 153 134 133 136 136 138 138 134 128 125 125 119 116 114 109 105 102 99 99 90 88 90 88 85 84 83 81 80 74 61 72
23 2 21 85 249 322 114 156 131 89 16 26 107 81 55 339 148 164 147 135 133 139 138 142 139 136 131 127 126 126 125 121 117 112 109 106 101 96 92 91 91 90 87 85 82 78 72 67 70
32 58 43 4 278 164 106 160 132 152 160 181 101 164 103 17 120 136 135 128 131 137 141 142 140 139 137 134 132 133 130 126 122 117 113 108 105 102 98 98 97 93 90 88 85 82 74 63 64
17 91 58 276 294 207 108 145 138 135 146 161 105 115 181 159 120 161 138 122 130 137 142 143 138 138 141 140 138 137 133 129 125 121 118 115 111 108 104 102 99 97 95 91 88 82 68 66 69
112 87 212 258 279 166 162 133 134 153 147 185 165 83 110 154 164 160 151 131 133 136 137 136 143 146 143 141 141 140 139 134 131 125 116 109 108 107 105 104 103 100 98 95 93 80 79 74 76
97 99 317 260 190 39 168 90 76 106 197 132 105 151 180 212 176 152 156 141 138 145 140 144 140 147 148 150 146 143 141 139 134 123 116 109 106 103 101 102 107 106 102 100 92 86 81 79 76
70 62 250 269 338 136 154 103 3 139 112 65 54 125 209 151 144 134 145 133 136 154 148 156 150 153 150 148 153 145 145 140 129 127 128 122 118 108 102 112 112 110 108 107 101 91 87 83 76
93 110 225 330 31 84 135 116 172 102 113 103 66 39 103 133 145 166 178 155 165 165 153 155 162 158 158 159 154 148 150 153 145 143 145 136 120 115 106 106 112 116 117 116 104 79 89 85 76
178 176 194 7 59 53 59 74 155 137 197 204 190 166 164 156 165 177 196 180 177 172 158 164 168 166 161 164 163 158 153 145 156 158 146 133 124 115 104 106 100 110 93 74 76 78 76 87 91
143 268 129 102 65 55 72 298 330 178 208 159 171 179 163 170 182 187 195 196 173 177 170 176 171 170 168 161 168 162 167 165 174 163 139 136 136 135 135 137 147 131 108 102 90 85 87 79 78
145 279 112 125 107 141 347 281 244 263 253 257 141 152 179 180 195 203 200 201 177 184 179 178 180 178 164 158 169 163 169 173 164 150 150 153 150 154 151 158 160 147 130 115 100 90 86 82 78
158 125 233 178 186 210 168 270 139 264 243 243 178 179 181 189 197 203 203 208 198 185 188 180 180 174 165 165 169 170 169 172 169 170 168 162 155 156 166 161 160 145 133 116 98 94 86 82 86
97 32 320 229 193 224 147 300 230 230 286 254 210 205 200 203 198 205 208 206 199 196 184 181 178 169 171 171 170 170 176 173 178 177 166 163 161 158 138 139 128 130 122 112 108 95 90 84 81
119 85 73 283 149 217 117 264 272 275 207 240 240 229 210 220 208 212 205 206 197 184 181 185 179 166 170 171 172 171 174 177 179 177 168 169 164 159 144 152 146 140 133 130 128 125 112 104 95
343 201 197 303 154 126 163 260 270 6 113 242 243 242 239 238 241 226 204 203 198 186 175 181 179 174 158 148 162 171 174 174 173 164 167 173 165 160 150 146 139 142 146 141 138 132 129 123 110
204 212 246 219 227 142 186 256 272 281 288 247 255 248 240 235 235 221 210 204 195 184 174 174 179 172 133 123 117 109 133 135 160 161 168 168 163 157 148 145 145 140 153 146 141 140 133 132 127
170 196 244 271 203 152 220 255 252 267 271 279 257 251 247 243 238 223 213 206 184 172 167 173 163 161 141 139 140 139 152 129 119 150 162 164 165 161 153 153 150 155 158 176 143 132 135 131 129
223 256 258 293 165 156 273 262 249 258 245 232 249 251 242 240 234 247 212 196 182 180 178 167 173 160 159 150 118 123 125 95 94 100 152 137 160 160 162 160 166 173 150 176 143 147 149 137 170
205 178 205 216 330 301 319 276 265 263 254 260 254 242 243 229 229 239 220 199 183 178 177 171 168 158 149 130 114 83 69 70 99 182 150 162 149 163 166 167 168 172 174 168 167 169 170 160 187
224 202 202 248 59 240 121 287 289 279 271 242 265 256 240 235 236 222 191 175 174 173 148 150 157 157 155 148 149 161 167 168 187 167 163 168 155 161 168 166 170 172 178 169 181 187 169 161 175
216 144 161 176 172 341 222 280 270 286 282 268 243 253 248 243 224 196 180 158 161 159 173 163 151 159 162 164 172 172 186 175 143 144 160 163 163 165 171 171 173 179 175 180 177 183 183 183 170
145 75 37 34 76 276 183 186 218 206 212 267 291 245 168 118 99 94 92 119 113 117 139 160 160 156 161 161 163 172 175 161 151 159 170 172 165 168 180 177 179 183 183 179 182 186 194 184 183
97 94 10 334 343 243 230 193 247 269 230 209 211 171 168 152 143 133 119 119 123 142 152 156 153 152 150 148 155 164 179 171 177 172 175 169 167 179 192 184 183 182 188 185 180 184 186 190 186
192 159 167 192 198 251 342 238 246 226 254 259 40 198 161 170 163 161 164 158 162 166 158 142 145 130 146 150 158 164 177 166 168 168 158 180 194 185 177 187 186 183 174 181 180 185 190 191 190
203 215 177 88 40 47 226 290 289 267 263 277 232 184 191 177 171 170 166 172 170 176 180 169 163 165 162 171 164 172 169 164 168 173 165 175 162 167 167 177 177 176 165 170 177 186 188 186 178
171 151 100 242 170 241 255 262 242 308 317 321 314 236 218 193 163 154 164 164 177 175 181 171 188 190 177 183 180 186 190 179 174 166 175 178 170 161 166 175 179 177 173 175 178 178 179 176 178
152 198 198 158 162 177 267 258 254 94 30 42 20 23 100 155 167 177 174 147 154 171 185 189 191 188 184 183 188 184 189 188 177 178 172 170 154 162 172 175 174 177 180 182 183 181 175 182 167
290 215 188 163 225 217 162 250 102 134 147 106 45 61 72 101 157 164 146 150 171 208 219 210 210 208 209 187 181 188 174 172 176 180 168 154 169 169 168 164 165 170 177 177 182 177 178 172 165